IBE6123 SKBO-MROC

Flight info

Callsign IBE6123
Flight time 1h 39m
Altitude 40000
Route TOBKI1S VASIL UL423 ISEBA CUARE3I
Aircraft A359/H-SDE2E3GHIJ3J4J5LM1ORWXY/LB1D1

Departure

Time 2026-05-08 21:01
Airport El Dorado International Airport (SKBO)

Arrival

Time 2026-05-08 22:41
Airport Juan Santamaría International Airport (MROC)
Time Latitude Longitude Altitude Speed Heading
2026-05-08 20:32 4.69810 -74.13880 8374 ft 0 kts 216°
2026-05-08 20:51 4.69823 -74.13871 8376 ft 4 kts 216°
2026-05-08 20:51 4.69844 -74.13855 8374 ft 4 kts 222°
2026-05-08 20:51 4.69859 -74.13835 8376 ft 4 kts 262°
2026-05-08 20:52 4.69855 -74.13810 8376 ft 4 kts 302°
2026-05-08 20:52 4.69850 -74.13802 8375 ft 0 kts 307°
2026-05-08 20:54 4.69851 -74.13804 8376 ft 1 kts 307°
2026-05-08 20:55 4.69867 -74.13825 8376 ft 7 kts 307°
2026-05-08 20:55 4.69906 -74.13877 8376 ft 12 kts 307°
2026-05-08 20:55 4.69960 -74.13951 8371 ft 14 kts 307°
2026-05-08 20:55 4.70020 -74.14027 8371 ft 14 kts 316°
2026-05-08 20:56 4.70095 -74.14009 8376 ft 12 kts 36°
2026-05-08 20:56 4.70163 -74.13992 8375 ft 10 kts 329°
2026-05-08 20:56 4.70214 -74.14048 8371 ft 13 kts 307°
2026-05-08 20:56 4.70276 -74.14131 8373 ft 16 kts 307°
2026-05-08 20:57 4.70345 -74.14223 8371 ft 17 kts 307°
2026-05-08 20:57 4.70415 -74.14316 8372 ft 17 kts 307°
2026-05-08 20:57 4.70485 -74.14409 8372 ft 17 kts 307°
2026-05-08 20:57 4.70557 -74.14503 8375 ft 17 kts 307°
2026-05-08 20:58 4.70629 -74.14598 8372 ft 17 kts 307°
2026-05-08 20:58 4.70700 -74.14692 8376 ft 17 kts 307°
2026-05-08 20:58 4.70775 -74.14790 8373 ft 18 kts 307°
2026-05-08 20:58 4.70850 -74.14890 8373 ft 18 kts 307°
2026-05-08 20:59 4.70925 -74.14990 8371 ft 18 kts 307°
2026-05-08 20:59 4.71002 -74.15092 8373 ft 18 kts 307°
2026-05-08 20:59 4.71079 -74.15194 8375 ft 18 kts 307°
2026-05-08 20:59 4.71160 -74.15291 8375 ft 18 kts 326°
2026-05-08 21:00 4.71262 -74.15266 8377 ft 16 kts 44°
2026-05-08 21:00 4.71314 -74.15199 8375 ft 9 kts 85°
2026-05-08 21:00 4.71294 -74.15150 8375 ft 1 kts 126°
2026-05-08 21:00 4.71276 -74.15125 8371 ft 17 kts 126°
2026-05-08 21:01 4.71065 -74.14847 8372 ft 83 kts 127°
2026-05-08 21:01 4.70590 -74.14219 8372 ft 141 kts 127°
2026-05-08 21:01 4.70149 -74.13638 8388 ft 173 kts 127°
2026-05-08 21:01 4.69442 -74.12726 9153 ft 161 kts 128°
2026-05-08 21:02 4.68677 -74.11869 9632 ft 173 kts 146°
2026-05-08 21:02 4.67509 -74.11703 10005 ft 177 kts 196°
2026-05-08 21:02 4.66590 -74.12510 10202 ft 184 kts 246°
2026-05-08 21:02 4.66264 -74.13751 10511 ft 185 kts 257°
2026-05-08 21:03 4.65864 -74.14987 10820 ft 187 kts 246°
2026-05-08 21:03 4.65260 -74.16151 11128 ft 191 kts 238°
2026-05-08 21:03 4.64489 -74.17285 11317 ft 203 kts 232°
2026-05-08 21:03 4.63583 -74.18426 11510 ft 216 kts 229°
2026-05-08 21:04 4.62571 -74.19599 11704 ft 229 kts 228°
2026-05-08 21:04 4.61639 -74.20919 11972 ft 236 kts 247°
2026-05-08 21:04 4.61172 -74.22524 12226 ft 246 kts 261°
2026-05-08 21:04 4.60848 -74.24247 12397 ft 262 kts 262°
2026-05-08 21:05 4.60514 -74.26089 12618 ft 276 kts 261°
2026-05-08 21:05 4.60252 -74.28042 12855 ft 289 kts 267°
2026-05-08 21:05 4.60125 -74.30099 13088 ft 303 kts 268°
2026-05-08 21:05 4.60013 -74.32249 13382 ft 313 kts 268°
2026-05-08 21:06 4.59898 -74.34439 13804 ft 315 kts 268°
2026-05-08 21:06 4.59787 -74.36660 14290 ft 320 kts 268°
2026-05-08 21:06 4.59669 -74.38888 14836 ft 321 kts 268°
2026-05-08 21:06 4.59769 -74.41133 15315 ft 322 kts 282°
2026-05-08 21:07 4.60306 -74.43317 15839 ft 324 kts 287°
2026-05-08 21:07 4.60938 -74.45488 16311 ft 326 kts 287°
2026-05-08 21:07 4.61578 -74.47678 16776 ft 328 kts 287°
2026-05-08 21:07 4.62220 -74.49879 17217 ft 330 kts 287°
2026-05-08 21:08 4.62862 -74.52100 17678 ft 332 kts 286°
2026-05-08 21:08 4.63503 -74.54349 18113 ft 336 kts 286°
2026-05-08 21:08 4.64150 -74.56601 18333 ft 345 kts 286°
2026-05-08 21:08 4.64859 -74.58972 18517 ft 355 kts 289°
2026-05-08 21:09 4.65979 -74.61206 18670 ft 365 kts 306°
2026-05-08 21:09 4.67770 -74.62982 18826 ft 373 kts 326°
2026-05-08 21:09 4.70145 -74.64086 18987 ft 381 kts 344°
2026-05-08 21:09 4.72756 -74.64713 19148 ft 389 kts 348°
2026-05-08 21:10 4.75425 -74.65268 19359 ft 395 kts 348°
2026-05-08 21:10 4.78126 -74.65839 19658 ft 398 kts 348°
2026-05-08 21:10 4.80845 -74.66416 19985 ft 400 kts 348°
2026-05-08 21:10 4.83549 -74.67109 20277 ft 403 kts 340°
2026-05-08 21:11 4.86015 -74.68428 20589 ft 404 kts 324°
2026-05-08 21:11 4.88265 -74.70130 20872 ft 407 kts 321°
2026-05-08 21:11 4.90500 -74.71899 21173 ft 409 kts 321°
2026-05-08 21:11 4.92699 -74.73712 21466 ft 411 kts 317°
2026-05-08 21:12 4.94574 -74.75871 21746 ft 412 kts 303°
2026-05-08 21:12 4.96055 -74.78336 22044 ft 414 kts 298°
2026-05-08 21:12 4.97374 -74.80909 22323 ft 415 kts 296°
2026-05-08 21:12 4.98620 -74.83538 22596 ft 417 kts 295°
2026-05-08 21:13 4.99830 -74.86155 22859 ft 419 kts 294°
2026-05-08 21:13 5.01067 -74.88819 23123 ft 421 kts 295°
2026-05-08 21:13 5.02322 -74.91482 23379 ft 423 kts 295°
2026-05-08 21:13 5.03598 -74.94150 23628 ft 425 kts 295°
2026-05-08 21:14 5.04891 -74.96825 23872 ft 427 kts 296°
2026-05-08 21:14 5.06192 -74.99502 24113 ft 428 kts 296°
2026-05-08 21:14 5.07505 -75.02196 24353 ft 430 kts 296°
2026-05-08 21:14 5.08821 -75.04897 24572 ft 432 kts 295°
2026-05-08 21:15 5.10142 -75.07608 24815 ft 433 kts 295°
2026-05-08 21:15 5.11451 -75.10297 25040 ft 435 kts 295°
2026-05-08 21:15 5.12783 -75.13034 25269 ft 436 kts 295°
2026-05-08 21:15 5.14118 -75.15779 25502 ft 438 kts 295°
2026-05-08 21:16 5.15636 -75.18436 25717 ft 440 kts 303°
2026-05-08 21:16 5.17502 -75.20884 25953 ft 442 kts 308°
2026-05-08 21:16 5.19478 -75.23249 26175 ft 444 kts 310°
2026-05-08 21:16 5.21518 -75.25584 26402 ft 446 kts 311°
2026-05-08 21:17 5.23589 -75.27906 26646 ft 447 kts 311°
2026-05-08 21:17 5.25676 -75.30233 26885 ft 449 kts 311°
2026-05-08 21:17 5.27747 -75.32548 27116 ft 451 kts 311°
2026-05-08 21:17 5.29837 -75.34895 27345 ft 452 kts 311°
2026-05-08 21:18 5.31936 -75.37261 27576 ft 454 kts 310°
2026-05-08 21:18 5.34047 -75.39647 27800 ft 456 kts 310°
2026-05-08 21:18 5.36133 -75.42006 28048 ft 458 kts 310°
2026-05-08 21:18 5.38252 -75.44404 28303 ft 459 kts 310°
2026-05-08 21:19 5.40375 -75.46808 28507 ft 461 kts 310°
2026-05-08 21:19 5.42513 -75.49230 28765 ft 463 kts 310°
2026-05-08 21:19 5.44652 -75.51652 29014 ft 464 kts 310°
2026-05-08 21:19 5.46799 -75.54081 29244 ft 466 kts 310°
2026-05-08 21:20 5.48960 -75.56526 29495 ft 468 kts 310°
2026-05-08 21:20 5.51100 -75.58951 29730 ft 470 kts 310°
2026-05-08 21:20 5.53273 -75.61413 30000 ft 471 kts 310°
2026-05-08 21:20 5.55453 -75.63882 30242 ft 473 kts 310°
2026-05-08 21:21 5.57644 -75.66364 30544 ft 474 kts 310°
2026-05-08 21:21 5.59837 -75.68849 30834 ft 475 kts 310°
2026-05-08 21:21 5.62029 -75.71332 31136 ft 476 kts 310°
2026-05-08 21:21 5.64230 -75.73826 31457 ft 477 kts 310°
2026-05-08 21:22 5.66430 -75.76320 31734 ft 477 kts 310°
2026-05-08 21:22 5.68608 -75.78790 31986 ft 478 kts 311°
2026-05-08 21:22 5.70662 -75.81420 32234 ft 479 kts 303°
2026-05-08 21:22 5.72336 -75.84312 32483 ft 479 kts 297°
2026-05-08 21:23 5.73852 -75.87293 32708 ft 480 kts 296°
2026-05-08 21:23 5.75316 -75.90320 32972 ft 481 kts 295°
2026-05-08 21:23 5.76747 -75.93360 33232 ft 481 kts 295°
2026-05-08 21:23 5.78174 -75.96418 33452 ft 483 kts 295°
2026-05-08 21:24 5.79603 -75.99480 33689 ft 484 kts 295°
2026-05-08 21:24 5.81036 -76.02539 33908 ft 485 kts 295°
2026-05-08 21:24 5.82478 -76.05605 34127 ft 486 kts 295°
2026-05-08 21:24 5.83907 -76.08634 34339 ft 487 kts 295°
2026-05-08 21:25 5.85360 -76.11709 34530 ft 488 kts 295°
2026-05-08 21:25 5.86817 -76.14790 34801 ft 487 kts 295°
2026-05-08 21:25 5.88269 -76.17857 35124 ft 486 kts 295°
2026-05-08 21:25 5.89723 -76.20931 35459 ft 485 kts 295°
2026-05-08 21:26 5.91165 -76.23982 35809 ft 483 kts 295°
2026-05-08 21:26 5.92604 -76.27027 36104 ft 482 kts 295°
2026-05-08 21:26 5.94037 -76.30061 36384 ft 482 kts 295°
2026-05-08 21:26 5.95475 -76.33104 36642 ft 482 kts 295°
2026-05-08 21:27 5.96911 -76.36146 36944 ft 481 kts 295°
2026-05-08 21:27 5.98341 -76.39173 37235 ft 480 kts 295°
2026-05-08 21:27 5.99769 -76.42197 37538 ft 478 kts 295°
2026-05-08 21:27 6.01195 -76.45216 37820 ft 477 kts 295°
2026-05-08 21:28 6.02620 -76.48236 38056 ft 478 kts 295°
2026-05-08 21:28 6.04026 -76.51214 38262 ft 478 kts 295°
2026-05-08 21:28 6.05448 -76.54228 38535 ft 477 kts 295°
2026-05-08 21:28 6.06867 -76.57236 38762 ft 476 kts 295°
2026-05-08 21:29 6.08288 -76.60250 38973 ft 476 kts 294°
2026-05-08 21:29 6.09706 -76.63256 39224 ft 475 kts 294°
2026-05-08 21:29 6.11121 -76.66258 39438 ft 475 kts 294°
2026-05-08 21:29 6.12534 -76.69257 39619 ft 475 kts 295°
2026-05-08 21:30 6.13949 -76.72259 39834 ft 474 kts 295°
2026-05-08 21:30 6.15362 -76.75257 39978 ft 475 kts 295°
2026-05-08 21:30 6.16774 -76.78255 39994 ft 474 kts 295°
2026-05-08 21:31 6.19596 -76.84245 39988 ft 474 kts 295°
2026-05-08 21:31 6.22408 -76.90219 39967 ft 476 kts 295°
2026-05-08 21:32 6.25246 -76.96248 39967 ft 477 kts 295°
2026-05-08 21:32 6.28091 -77.02293 39960 ft 478 kts 295°
2026-05-08 21:33 6.30935 -77.08337 39947 ft 478 kts 295°
2026-05-08 21:33 6.33777 -77.14382 39940 ft 477 kts 295°
2026-05-08 21:34 6.36597 -77.20380 39932 ft 477 kts 295°
2026-05-08 21:34 6.39438 -77.26427 39922 ft 478 kts 295°
2026-05-08 21:35 6.42280 -77.32477 39911 ft 478 kts 295°
2026-05-08 21:35 6.45127 -77.38540 39904 ft 478 kts 295°
2026-05-08 21:36 6.47970 -77.44597 39898 ft 479 kts 295°
2026-05-08 21:36 6.50798 -77.50626 39888 ft 479 kts 295°
2026-05-08 21:37 6.53642 -77.56689 39879 ft 479 kts 295°
2026-05-08 21:37 6.56487 -77.62757 39871 ft 479 kts 295°
2026-05-08 21:38 6.59336 -77.68835 39863 ft 480 kts 295°
2026-05-08 21:38 6.62161 -77.74865 39855 ft 479 kts 295°
2026-05-08 21:39 6.65004 -77.80935 39850 ft 480 kts 294°
2026-05-08 21:39 6.67852 -77.87018 39840 ft 480 kts 294°
2026-05-08 21:40 6.70698 -77.93100 39830 ft 480 kts 294°
2026-05-08 21:40 6.73524 -77.99140 39819 ft 480 kts 294°
2026-05-08 21:41 6.77800 -78.08285 39808 ft 481 kts 294°
2026-05-08 21:41 6.80653 -78.14388 39803 ft 482 kts 294°
2026-05-08 21:42 6.83523 -78.20483 39801 ft 482 kts 296°
2026-05-08 21:42 6.86841 -78.26364 39804 ft 483 kts 300°
2026-05-08 21:43 6.90262 -78.32188 39804 ft 483 kts 300°
2026-05-08 21:43 6.93683 -78.37973 39804 ft 483 kts 300°
2026-05-08 21:44 6.97119 -78.43796 39805 ft 483 kts 300°
2026-05-08 21:44 7.00552 -78.49627 39804 ft 484 kts 300°
2026-05-08 21:45 7.03981 -78.55459 39804 ft 484 kts 300°
2026-05-08 21:45 7.07392 -78.61261 39804 ft 484 kts 300°
2026-05-08 21:46 7.10833 -78.67115 39804 ft 484 kts 300°
2026-05-08 21:46 7.14265 -78.72956 39804 ft 484 kts 300°
2026-05-08 21:47 7.17698 -78.78797 39804 ft 484 kts 300°
2026-05-08 21:47 7.21114 -78.84612 39804 ft 484 kts 300°
2026-05-08 21:48 7.24549 -78.90461 39804 ft 485 kts 300°
2026-05-08 21:48 7.27403 -78.95324 39804 ft 485 kts 300°
2026-05-08 21:49 7.30835 -79.01173 39805 ft 485 kts 300°
2026-05-08 21:49 7.34275 -79.07037 39804 ft 485 kts 300°
2026-05-08 21:50 7.37687 -79.12856 39804 ft 485 kts 300°
2026-05-08 21:50 7.41119 -79.18711 39805 ft 485 kts 300°
2026-05-08 21:51 7.44551 -79.24568 39804 ft 485 kts 300°
2026-05-08 21:51 7.47988 -79.30437 39804 ft 486 kts 300°
2026-05-08 21:52 7.51419 -79.36296 39805 ft 486 kts 300°
2026-05-08 21:52 7.54830 -79.42126 39805 ft 486 kts 300°
2026-05-08 21:53 7.58268 -79.48003 39804 ft 486 kts 300°
2026-05-08 21:53 7.61701 -79.53874 39805 ft 486 kts 300°
2026-05-08 21:54 7.65134 -79.59746 39803 ft 486 kts 300°
2026-05-08 21:54 7.68573 -79.65632 39804 ft 486 kts 300°
2026-05-08 21:55 7.71983 -79.71469 39804 ft 486 kts 299°
2026-05-08 21:56 7.77132 -79.80292 39804 ft 486 kts 299°
2026-05-08 21:56 7.80577 -79.86194 39805 ft 486 kts 299°
2026-05-08 21:57 7.84007 -79.92074 39805 ft 487 kts 299°
2026-05-08 21:57 7.87423 -79.97932 39804 ft 487 kts 299°
2026-05-08 21:58 7.90369 -80.02987 39804 ft 487 kts 299°
2026-05-08 21:58 7.93489 -80.08342 39805 ft 487 kts 299°
2026-05-08 21:59 7.96919 -80.14231 39804 ft 487 kts 299°
2026-05-08 21:59 8.00329 -80.20089 39804 ft 487 kts 299°
2026-05-08 22:00 8.03758 -80.25982 39805 ft 487 kts 299°
2026-05-08 22:00 8.07187 -80.31877 39804 ft 487 kts 299°
2026-05-08 22:01 8.10617 -80.37778 39803 ft 487 kts 299°
2026-05-08 22:01 8.14028 -80.43647 39805 ft 487 kts 300°
2026-05-08 22:02 8.17459 -80.49551 39804 ft 487 kts 300°
2026-05-08 22:02 8.20888 -80.55456 39804 ft 487 kts 299°
2026-05-08 22:03 8.24297 -80.61330 39804 ft 488 kts 299°
2026-05-08 22:03 8.27730 -80.67247 39800 ft 488 kts 300°
2026-05-08 22:04 8.31160 -80.73161 39794 ft 488 kts 300°
2026-05-08 22:04 8.34611 -80.79112 39795 ft 493 kts 300°
2026-05-08 22:05 8.38067 -80.85077 39796 ft 497 kts 300°
2026-05-08 22:05 8.41570 -80.91126 39795 ft 500 kts 300°
2026-05-08 22:06 8.45092 -80.97209 39804 ft 501 kts 300°
2026-05-08 22:06 8.48607 -81.03282 39807 ft 501 kts 300°
2026-05-08 22:07 8.52122 -81.09359 39814 ft 501 kts 300°
2026-05-08 22:07 8.55640 -81.15445 39805 ft 501 kts 300°
2026-05-08 22:08 8.59155 -81.21526 39820 ft 501 kts 300°
2026-05-08 22:08 8.62673 -81.27616 39813 ft 502 kts 300°
2026-05-08 22:09 8.66170 -81.33673 39818 ft 502 kts 300°
2026-05-08 22:09 8.69689 -81.39772 39830 ft 502 kts 300°
2026-05-08 22:10 8.73208 -81.45871 39814 ft 502 kts 300°
2026-05-08 22:10 8.76733 -81.51984 39836 ft 503 kts 300°
2026-05-08 22:11 8.80234 -81.58060 39838 ft 502 kts 300°
2026-05-08 22:11 8.83750 -81.64164 39827 ft 502 kts 300°
2026-05-08 22:12 8.87272 -81.70282 39839 ft 502 kts 300°
2026-05-08 22:12 8.90771 -81.76362 39844 ft 502 kts 300°
2026-05-08 22:13 8.94287 -81.82472 39847 ft 502 kts 300°
2026-05-08 22:13 8.97806 -81.88594 39860 ft 502 kts 300°
2026-05-08 22:14 9.01298 -81.94670 39865 ft 502 kts 300°
2026-05-08 22:14 9.04801 -82.00770 39871 ft 501 kts 300°
2026-05-08 22:15 9.08304 -82.06872 39880 ft 502 kts 300°
2026-05-08 22:15 9.11813 -82.12986 39888 ft 502 kts 300°
2026-05-08 22:16 9.15322 -82.19104 39896 ft 502 kts 300°
2026-05-08 22:16 9.18830 -82.25224 39901 ft 502 kts 300°
2026-05-08 22:17 9.22336 -82.31342 39906 ft 502 kts 300°
2026-05-08 22:17 9.25837 -82.37456 39906 ft 502 kts 300°
2026-05-08 22:18 9.29317 -82.43536 39906 ft 502 kts 300°
2026-05-08 22:18 9.32826 -82.49668 39906 ft 502 kts 300°
2026-05-08 22:19 9.36311 -82.55763 39899 ft 502 kts 300°
2026-05-08 22:19 9.39814 -82.61891 39905 ft 502 kts 300°
2026-05-08 22:20 9.43215 -82.68061 39908 ft 502 kts 295°
2026-05-08 22:20 9.45354 -82.74764 39898 ft 501 kts 282°
2026-05-08 22:21 9.46791 -82.81683 39897 ft 502 kts 281°
2026-05-08 22:21 9.48195 -82.88611 39896 ft 502 kts 281°
2026-05-08 22:22 9.49576 -82.95446 39174 ft 495 kts 281°
2026-05-08 22:22 9.50268 -82.98878 38344 ft 497 kts 281°
2026-05-08 22:22 9.50962 -83.02317 37498 ft 500 kts 281°
2026-05-08 22:22 9.51658 -83.05772 36688 ft 501 kts 282°
2026-05-08 22:23 9.52355 -83.09231 35846 ft 502 kts 282°
2026-05-08 22:23 9.53052 -83.12694 35014 ft 503 kts 282°
2026-05-08 22:23 9.53753 -83.16172 34137 ft 504 kts 282°
2026-05-08 22:23 9.54454 -83.19657 33222 ft 506 kts 282°
2026-05-08 22:24 9.55156 -83.23152 32286 ft 508 kts 282°
2026-05-08 22:24 9.55861 -83.26661 31319 ft 509 kts 282°
2026-05-08 22:24 9.56569 -83.30186 30315 ft 511 kts 282°
2026-05-08 22:24 9.57278 -83.33719 29338 ft 512 kts 282°
2026-05-08 22:25 9.57988 -83.37260 28446 ft 511 kts 282°
2026-05-08 22:25 9.58694 -83.40783 27573 ft 510 kts 282°
2026-05-08 22:25 9.59400 -83.44304 26738 ft 507 kts 282°
2026-05-08 22:25 9.60090 -83.47749 25997 ft 503 kts 282°
2026-05-08 22:26 9.60781 -83.51204 25307 ft 498 kts 282°
2026-05-08 22:26 9.61466 -83.54625 24624 ft 492 kts 282°
2026-05-08 22:26 9.62141 -83.58006 23946 ft 487 kts 282°
2026-05-08 22:26 9.62811 -83.61358 23300 ft 482 kts 282°
2026-05-08 22:27 9.63471 -83.64667 22628 ft 476 kts 282°
2026-05-08 22:27 9.64125 -83.67942 21956 ft 471 kts 282°
2026-05-08 22:27 9.64771 -83.71182 21295 ft 465 kts 282°
2026-05-08 22:27 9.65409 -83.74379 20625 ft 460 kts 282°
2026-05-08 22:28 9.66039 -83.77539 19956 ft 455 kts 282°
2026-05-08 22:28 9.66661 -83.80663 19304 ft 450 kts 282°
2026-05-08 22:28 9.67277 -83.83757 18643 ft 445 kts 282°
2026-05-08 22:28 9.67885 -83.86811 17983 ft 440 kts 282°
2026-05-08 22:29 9.68479 -83.89795 17323 ft 434 kts 282°
2026-05-08 22:29 9.69080 -83.92819 16644 ft 429 kts 282°
2026-05-08 22:29 9.69661 -83.95742 15988 ft 424 kts 282°
2026-05-08 22:29 9.70241 -83.98662 15333 ft 419 kts 282°
2026-05-08 22:30 9.70813 -84.01544 14674 ft 414 kts 282°
2026-05-08 22:30 9.71380 -84.04399 14213 ft 410 kts 282°
2026-05-08 22:30 9.71941 -84.07229 14082 ft 402 kts 282°
2026-05-08 22:30 9.72473 -84.09913 13967 ft 385 kts 282°
2026-05-08 22:31 9.72989 -84.12519 13836 ft 369 kts 282°
2026-05-08 22:31 9.73484 -84.15018 13689 ft 355 kts 282°
2026-05-08 22:31 9.73961 -84.17428 13533 ft 342 kts 282°
2026-05-08 22:31 9.74420 -84.19754 13342 ft 330 kts 282°
2026-05-08 22:32 9.74868 -84.22022 12970 ft 326 kts 282°
2026-05-08 22:32 9.75314 -84.24270 12506 ft 324 kts 282°
2026-05-08 22:32 9.75755 -84.26499 12134 ft 320 kts 282°
2026-05-08 22:32 9.76190 -84.28701 11781 ft 317 kts 282°
2026-05-08 22:33 9.76622 -84.30887 11436 ft 316 kts 282°
2026-05-08 22:33 9.77051 -84.33054 11273 ft 309 kts 282°
2026-05-08 22:33 9.77460 -84.35123 11137 ft 296 kts 282°
2026-05-08 22:33 9.77857 -84.37131 11014 ft 284 kts 282°
2026-05-08 22:34 9.78236 -84.39058 10891 ft 273 kts 282°
2026-05-08 22:34 9.78606 -84.40929 10640 ft 268 kts 282°
2026-05-08 22:34 9.79006 -84.42764 10303 ft 266 kts 288°
2026-05-08 22:34 9.79934 -84.44347 10017 ft 260 kts 319°
2026-05-08 22:35 9.81491 -84.45216 9706 ft 255 kts 343°
2026-05-08 22:35 9.83198 -84.45703 9328 ft 255 kts 347°
2026-05-08 22:35 9.84925 -84.46141 8948 ft 256 kts 347°
2026-05-08 22:35 9.86657 -84.46565 8619 ft 254 kts 349°
2026-05-08 22:36 9.88374 -84.46547 8252 ft 250 kts 19°
2026-05-08 22:36 9.89776 -84.45600 7997 ft 242 kts 49°
2026-05-08 22:36 9.90446 -84.44668 7722 ft 243 kts 61°
2026-05-08 22:36 9.91289 -84.42569 7186 ft 244 kts 72°
2026-05-08 22:37 9.91848 -84.40943 6814 ft 244 kts 69°
2026-05-08 22:37 9.92270 -84.39862 6575 ft 244 kts 69°
2026-05-08 22:37 9.92873 -84.38278 6242 ft 243 kts 70°
2026-05-08 22:37 9.93464 -84.36677 5929 ft 241 kts 70°
2026-05-08 22:38 9.94063 -84.35092 5622 ft 240 kts 70°
2026-05-08 22:38 9.94651 -84.33517 5298 ft 238 kts 70°
2026-05-08 22:38 9.95240 -84.31950 4979 ft 235 kts 70°
2026-05-08 22:38 9.95808 -84.30430 4671 ft 225 kts 70°
2026-05-08 22:39 9.96345 -84.28985 4373 ft 212 kts 71°
2026-05-08 22:39 9.96830 -84.27635 4139 ft 195 kts 71°
2026-05-08 22:39 9.97297 -84.26398 3906 ft 183 kts 70°
2026-05-08 22:39 9.97745 -84.25242 3612 ft 173 kts 71°
2026-05-08 22:40 9.98160 -84.24140 3391 ft 161 kts 71°
2026-05-08 22:40 9.98554 -84.23119 3181 ft 150 kts 70°
2026-05-08 22:40 9.98912 -84.22164 2998 ft 140 kts 71°
2026-05-08 22:40 9.99235 -84.21302 2999 ft 114 kts 69°
2026-05-08 22:41 9.99468 -84.20676 3036 ft 76 kts 69°
2026-05-08 22:41 9.99608 -84.20304 3047 ft 37 kts 69°
2026-05-08 22:41 9.99657 -84.20175 3044 ft 11 kts 65°
2026-05-08 22:41 9.99704 -84.20143 3042 ft 7 kts
2026-05-08 22:42 9.99749 -84.20165 3040 ft 7 kts 299°
2026-05-08 22:42 9.99738 -84.20217 3040 ft 9 kts 249°
2026-05-08 22:42 9.99713 -84.20281 3040 ft 11 kts 249°
2026-05-08 22:42 9.99691 -84.20342 3040 ft 7 kts 249°
2026-05-08 22:43 9.99681 -84.20386 3042 ft 4 kts 285°
2026-05-08 22:43 9.99702 -84.20409 3041 ft 3 kts 333°
2026-05-08 22:43 9.99709 -84.20411 3040 ft 0 kts 338°